Weather History for Baltimore Martin, MD

Change the Weather History Date:

Wednesday, June 19, 2013

  Actual Average Record
Temperature  
Mean Temperature 71 °F -  
Max Temperature 78 °F 79 °F 87 °F (2007)
Min Temperature 64 °F 64 °F 53 °F (1999)
Cooling Degree Days 6    
Growing Degree Days 21 (Base 50)    
Moisture  
Dew Point 62 °F    
Average Humidity 84    
Maximum Humidity 100    
Minimum Humidity 47    
Precipitation  
Precipitation 0.00 in - - ()
Sea Level Pressure  
Sea Level Pressure 30.01 in    
Wind  
Wind Speed 4 mph (North)    
Max Wind Speed 9 mph    
Max Gust Speed -    
Visibility 10 miles    
Events Rain    
Averages and records for this station are not official NWS values.
T = Trace of Precipitation, MM = Missing Value Source: NWS Daily Summary

Daily Weather History Graph

Daily Weather History Graph

Search for Another Location

Airport:

Trip Planner

Search our weather history database for the weather conditions in past years. The results will help you decide how hot, cold, wet, or windy it might be!

Date:

Astronomy

Jun. 19, 2013 Rise Set
Actual Time 5:38 AM EDT 8:35 PM EDT
Civil Twilight 5:06 AM EDT 9:07 PM EDT
Nautical Twilight 4:25 AM EDT 9:48 PM EDT
Astronomical Twilight 3:38 AM EDT 10:36 PM EDT
Moon 4:26 PM EDT (6/19) 2:20 AM EDT (6/19)
Length of Visible Light 16h 01m
Length of Day
14h 56m
Waxing Gibbous, 80% of the Moon is Illuminated
Jun 19
Waxing Gibbous
Jun 23
Full
Jun 30
Last Quarter
Jul 8
New
Jul 15
First Quarter

Hourly Weather History & Observations

Time (EDT) Temp. Dew Point Humidity Pressure Visibility Wind Dir Wind Speed Gust Speed Precip Events Conditions
12:06 AM 64.4 °F 64.4 °F 100% 29.89 in 7.0 mi Calm Calm - N/A   Scattered Clouds
12:27 AM 64.4 °F 64.4 °F 100% 29.90 in 10.0 mi Calm Calm - N/A   Scattered Clouds
12:48 AM 64.4 °F 64.4 °F 100% 29.91 in 10.0 mi NW 3.5 mph - N/A   Scattered Clouds
1:06 AM 64.4 °F 64.4 °F 100% 29.91 in 10.0 mi WNW 3.5 mph - N/A   Mostly Cloudy
1:27 AM 64.4 °F 64.4 °F 100% 29.91 in 10.0 mi NW 3.5 mph - N/A   Mostly Cloudy
1:48 AM 64.4 °F 64.4 °F 100% 29.92 in 10.0 mi WNW 5.8 mph - N/A   Mostly Cloudy
2:06 AM 64.4 °F 64.4 °F 100% 29.92 in 10.0 mi WNW 6.9 mph - N/A   Mostly Cloudy
2:27 AM 64.4 °F 64.4 °F 100% 29.92 in 10.0 mi WNW 6.9 mph - N/A Rain Rain
2:48 AM 64.4 °F 64.4 °F 100% 29.92 in 10.0 mi WNW 3.5 mph - N/A   Scattered Clouds
3:06 AM 66.2 °F 64.4 °F 94% 29.92 in 10.0 mi NW 4.6 mph - N/A   Scattered Clouds
3:27 AM 66.2 °F 64.4 °F 94% 29.92 in 10.0 mi WNW 5.8 mph - N/A   Drizzle
3:48 AM 64.4 °F 64.4 °F 100% 29.92 in 10.0 mi WNW 6.9 mph - N/A   Scattered Clouds
4:09 AM 64.4 °F 64.4 °F 100% 29.92 in 10.0 mi NW 4.6 mph - N/A   Clear
4:48 AM 64.4 °F 64.4 °F 100% 29.92 in 10.0 mi NW 4.6 mph - N/A   Clear
5:09 AM 64.4 °F 64.4 °F 100% 29.92 in 10.0 mi NW 3.5 mph - N/A   Clear
5:27 AM 64.4 °F 62.6 °F 94% 29.94 in 10.0 mi WNW 5.8 mph - N/A   Clear
5:30 AM 64.4 °F 62.6 °F 94% 29.94 in 10.0 mi NW 6.9 mph - N/A   Clear
5:45 AM 66.2 °F 64.4 °F 94% 29.94 in 10.0 mi NNE 5.8 mph - N/A   Scattered Clouds
6:45 AM 66.2 °F 64.4 °F 94% 29.97 in 10.0 mi Calm Calm - N/A   Scattered Clouds
7:45 AM 68.0 °F 62.6 °F 83% 30.00 in 10.0 mi NNE 3.5 mph - N/A   Scattered Clouds
8:45 AM 69.8 °F 62.6 °F 78% 30.02 in 10.0 mi North 6.9 mph - N/A   Scattered Clouds
9:45 AM 69.8 °F 60.8 °F 73% 30.05 in 10.0 mi NE 4.6 mph - N/A   Mostly Cloudy
10:55 AM 71.6 °F 57.2 °F 60% 30.08 in 10.0 mi NE 4.6 mph - N/A   Scattered Clouds
12:45 PM 75.2 °F 57.2 °F 53% 30.09 in 10.0 mi East 5.8 mph - N/A   Scattered Clouds
1:45 PM 75.2 °F 57.2 °F 53% 30.09 in 10.0 mi ENE 6.9 mph - N/A   Mostly Cloudy
2:45 PM 77.0 °F 60.8 °F 57% 30.09 in 10.0 mi East 8.1 mph - N/A   Scattered Clouds
3:45 PM 78.8 °F 59.0 °F 51% 30.09 in 10.0 mi East 9.2 mph - N/A   Scattered Clouds
4:45 PM 78.8 °F 57.2 °F 47% 30.08 in 10.0 mi East 9.2 mph - N/A   Scattered Clouds
5:55 PM 78.8 °F 57.2 °F 47% 30.08 in 10.0 mi ESE 8.1 mph - N/A   Scattered Clouds
6:50 PM 77.0 °F 55.4 °F 47% 30.10 in 10.0 mi East 6.9 mph - N/A   Scattered Clouds
8:50 PM 71.6 °F 59.0 °F 64% 30.11 in 10.0 mi Calm Calm - N/A   Scattered Clouds
9:45 PM 68.0 °F 60.8 °F 78% 30.13 in 10.0 mi Calm Calm - N/A   Scattered Clouds
10:09 PM 66.2 °F 60.8 °F 83% 30.14 in 10.0 mi Calm Calm - N/A   Clear
10:30 PM 66.2 °F 60.8 °F 83% 30.15 in 10.0 mi Calm Calm - N/A   Clear
10:51 PM 64.4 °F 62.6 °F 94% 30.15 in 10.0 mi Calm Calm - N/A   Clear
11:09 PM 64.4 °F 62.6 °F 94% 30.16 in 10.0 mi East 3.5 mph - N/A   Clear
11:30 PM 69.8 °F 64.4 °F 83% 30.16 in 10.0 mi ESE 9.2 mph - N/A   Clear
11:51 PM 69.8 °F 64.4 °F 83% 30.17 in 10.0 mi ESE 9.2 mph - N/A   Clear